Location: Walnut Point State Park
(39.6958°N, 88.0345°W)
Time: 11:07:54
(UTC-05:00)

Cosmos 1833 Rocket - Visible Passes

Search period start: 21 September 2014 00:00
Search period end: 01 October 2014 00:00
Orbit: 833 x 840 km, 71.0° (Epoch: 21 September)

Date Brightness Start Highest point End Pass type
(mag) Time Alt. Az. Time Alt. Az. Time Alt. Az.
28 Sep 3.7 06:16:40 10° S 06:22:04 52° ESE 06:27:29 10° NNE visible
29 Sep 3.8 06:00:10 10° S 06:05:30 47° ESE 06:10:51 10° NE visible
30 Sep 4.0 05:43:41 10° S 05:48:56 43° ESE 05:54:13 10° NE visible
